Location: Wingville
(42.9917°N, 90.4915°W)
Time: 00:25:34
(UTC+00:00)

EO-79 - Pass Details

Date: 26 June 2022
Orbit: 588 x 603 km, 98.0° (Epoch: 15 August)

Event Time Altitude Azimuth Distance (km) Brightness Sun altitude
Rises 06:35:39 0° 32° (NNE) 2,849 ? -23.3°
Reaches altitude 10° 06:38:42 10° 56° (NE) 1,944 ? -23.2°
Maximum altitude 06:41:07 15° 91° (E) 1,645 ? -23.1°
Enters shadow 06:41:56 14° 105° (ESE) 1,681 ? -23.1°
